SV2MJJ Weather Reports


Display with metric or nautical units.
time (UTC)temp
F
wind
direction
speed
MPH
gust
MPH
rain 1hr
in
rain 24hr
in
rain mn
in
humidity
%
barometer
mb
20200603233535 60 305 0.0 0.0 0.00 0.00 0.00 64 1004.3
20200603233050 60 305 0.0 0.0 0.00 0.00 0.00 64 1004.3
20200603232554 60 305 0.0 0.0 0.00 0.00 0.00 64 1004.4
20200603232054 60 305 0.0 0.0 0.00 0.00 0.00 64 1004.4
20200603231533 60 307 0.0 0.0 0.00 0.00 0.00 65 1004.5
20200603231048 60 307 0.0 0.0 0.00 0.00 0.00 65 1004.5
20200603230554 60 307 0.0 0.0 0.00 0.00 0.00 65 1004.5
20200603230032 60 307 0.0 0.0 0.00 0.00 0.00 65 1004.6
20200603225542 61 307 0.0 0.0 0.00 0.00 0.00 64 1004.6
20200603225045 61 307 0.0 0.0 0.00 0.00 0.00 63 1004.6
20200603224535 61 307 0.0 0.0 0.00 0.00 0.00 63 1004.6
20200603224040 61 307 0.0 0.0 0.00 0.00 0.00 63 1004.6
20200603223557 61 308 0.0 0.0 0.00 0.00 0.00 63 1004.6
20200603223059 61 307 0.0 0.0 0.00 0.00 0.00 63 1004.7
20200603222536 61 307 0.0 0.0 0.00 0.00 0.00 63 1004.6
20200603222033 61 307 0.0 0.0 0.00 0.00 0.00 62 1004.6
20200603221536 61 307 0.0 0.0 0.00 0.00 0.00 63 1004.7
20200603221045 61 307 0.0 0.0 0.00 0.00 0.00 64 1004.7
20200603220552 61 307 0.0 0.0 0.00 0.00 0.00 64 1004.6
20200603220051 61 307 0.0 0.0 0.00 0.00 0.00 64 1004.6
20200603215549 61 307 0.0 0.0 0.00 0.00 0.00 64 1004.6
20200603215050 61 307 0.0 0.0 0.00 0.00 0.00 64 1004.6
20200603214544 62 307 0.0 0.0 0.00 0.00 0.00 63 1004.4
20200603214042 62 307 0.0 0.0 0.00 0.00 0.00 62 1004.4
20200603213539 63 307 0.0 0.0 0.00 0.00 0.00 62 1004.4
20200603213042 63 307 0.0 0.0 0.00 0.00 0.00 62 1004.5
20200603212546 63 307 0.0 0.0 0.00 0.00 0.00 61 1004.3
20200603212058 63 307 0.0 0.0 0.00 0.00 0.00 61 1004.3
20200603211533 63 307 0.0 0.0 0.00 0.00 0.00 61 1004.3
20200603211034 63 307 0.0 0.0 0.00 0.00 0.00 61 1004.3
20200603210538 62 307 0.0 0.0 0.00 0.00 0.00 61 1004.2
20200603210103 63 307 0.0 0.0 0.00 0.00 0.00 61 1004.2
20200603205533 63 306 0.0 0.0 0.00 0.00 0.00 60 1004.2
20200603205042 63 306 0.0 0.0 0.00 0.00 0.00 59 1004.2
20200603204600 64 305 0.0 0.0 0.00 0.00 0.00 59 1004.0
20200603204059 65 305 0.0 0.0 0.00 0.00 0.00 58 1004.1
20200603203537 65 305 0.0 0.0 0.00 0.00 0.00 56 1004.1
20200603203050 65 305 0.0 0.0 0.00 0.00 0.00 56 1004.1
20200603202554 65 305 0.0 0.0 0.00 0.00 0.00 56 1004.2
20200603202101 65 305 0.0 0.0 0.00 0.00 0.00 57 1004.2
20200603201550 65 305 0.0 0.0 0.00 0.00 0.00 57 1004.2
20200603201053 65 305 0.0 0.0 0.00 0.00 0.00 57 1004.1
20200603200556 65 305 0.0 0.0 0.00 0.00 0.00 57 1004.2
20200603200041 65 305 0.0 0.0 0.00 0.00 0.00 57 1004.1
20200603195547 65 305 0.0 0.0 0.00 0.00 0.00 56 1004.1
20200603195047 66 305 0.0 0.0 0.00 0.00 0.00 56 1004.0
20200603194553 66 306 0.0 0.0 0.00 0.00 0.00 55 1003.9
20200603194038 67 308 0.0 0.0 0.00 0.00 0.00 55 1003.9
20200603193542 67 309 0.0 0.0 0.00 0.00 0.00 54 1003.9
20200603193038 67 313 0.0 0.0 0.00 0.00 0.00 55 1003.9
20200603192541 67 313 0.0 0.0 0.00 0.00 0.00 55 1003.8
20200603192042 66 313 0.0 0.0 0.00 0.00 0.00 55 1003.8
20200603191543 66 313 0.0 0.0 0.00 0.00 0.00 55 1003.6
20200603191048 67 313 0.0 0.0 0.00 0.00 0.00 55 1003.5
20200603190535 67 285 0.0 0.0 0.00 0.00 0.00 55 1003.3
20200603190036 67 276 0.0 0.0 0.00 0.00 0.00 55 1003.1
20200603185544 67 263 0.0 0.0 0.00 0.00 0.00 55 1002.9
20200603185045 67 265 0.0 0.0 0.00 0.00 0.00 55 1002.8
20200603184551 68 260 0.0 0.0 0.00 0.00 0.00 55 1002.9
20200603184050 68 261 0.0 0.0 0.00 0.00 0.00 55 1002.8
20200603183538 69 290 0.0 0.0 0.00 0.00 0.00 54 1002.8
20200603183045 69 284 0.0 0.0 0.00 0.00 0.00 53 1002.7
20200603182546 69 269 0.0 0.0 0.00 0.00 0.00 51 1002.6
20200603182059 69 267 0.0 0.0 0.00 0.00 0.00 51 1002.6
20200603181540 70 271 0.0 0.0 0.00 0.00 0.00 51 1002.5
20200603181043 70 268 0.0 0.0 0.00 0.00 0.00 51 1002.5
20200603180559 70 268 0.0 0.0 0.00 0.00 0.00 51 1002.4
20200603180035 71 268 0.0 0.0 0.00 0.00 0.00 51 1002.4
20200603175544 71 259 0.0 0.0 0.00 0.00 0.00 50 1002.3
20200603175042 72 238 0.0 0.0 0.00 0.00 0.00 50 1002.3
20200603174559 72 238 0.0 0.0 0.00 0.00 0.00 50 1002.3
20200603174034 72 223 0.0 0.0 0.00 0.00 0.00 49 1002.3
20200603173541 73 197 0.0 0.0 0.00 0.00 0.00 49 1002.2
20200603173050 73 178 0.0 0.0 0.00 0.00 0.00 48 1002.2
20200603172550 73 175 0.0 0.0 0.00 0.00 0.00 47 1002.3
20200603172056 74 174 0.0 0.0 0.00 0.00 0.00 46 1002.2
20200603171538 75 174 0.0 0.0 0.00 0.00 0.00 46 1002.3
20200603171041 76 173 0.0 0.0 0.00 0.00 0.00 43 1002.3
20200603170546 76 173 0.0 0.0 0.00 0.00 0.00 43 1002.3
20200603170038 76 173 0.0 0.0 0.00 0.00 0.00 43 1002.3
20200603165547 76 173 0.0 0.0 0.00 0.00 0.00 43 1002.1
20200603165052 76 173 0.0 0.0 0.00 0.00 0.00 43 1002.1
20200603164538 76 173 0.0 0.0 0.00 0.00 0.00 43 1002.1
20200603164035 76 173 0.0 0.0 0.00 0.00 0.00 43 1002.0
20200603163546 76 173 0.0 0.0 0.00 0.00 0.00 42 1001.9
20200603163050 76 173 0.0 0.0 0.00 0.00 0.00 40 1001.8
20200603162533 76 173 0.0 0.0 0.00 0.00 0.00 40 1001.8
20200603162037 76 173 0.0 0.0 0.00 0.00 0.00 40 1001.8
20200603161545 76 173 0.0 0.0 0.00 0.00 0.00 40 1001.8
20200603161042 77 173 0.0 0.0 0.00 0.00 0.00 39 1001.7
20200603160547 78 171 0.0 0.0 0.00 0.00 0.00 38 1001.7
20200603160051 78 171 0.0 0.0 0.00 0.00 0.00 38 1001.7
20200603155539 77 171 0.0 0.0 0.00 0.00 0.00 37 1001.7
20200603155037 77 171 0.0 0.0 0.00 0.00 0.00 38 1001.7
20200603154543 77 171 0.0 0.0 0.00 0.00 0.00 37 1001.6
20200603154049 77 174 0.0 0.0 0.00 0.00 0.00 37 1001.7
20200603153550 77 174 0.0 0.0 0.00 0.00 0.00 39 1001.7
20200603153057 77 174 0.0 0.0 0.00 0.00 0.00 39 1001.8
20200603152536 77 174 0.0 0.0 0.00 0.00 0.00 39 1001.8
20200603152051 77 175 0.0 0.0 0.00 0.00 0.00 39 1001.8
20200603151555 78 175 0.0 0.0 0.00 0.00 0.00 38 1001.7
20200603151058 77 175 0.0 0.0 0.00 0.00 0.00 38 1001.7
20200603150547 77 181 0.0 0.0 0.00 0.00 0.00 38 1001.8
20200603150048 77 183 0.0 0.0 0.00 0.00 0.00 38 1001.8
20200603145554 77 186 0.0 0.0 0.00 0.00 0.00 38 1001.7
20200603145047 77 185 0.0 0.0 0.00 0.00 0.00 38 1001.8
20200603144534 77 166 0.0 0.0 0.00 0.00 0.00 37 1001.9
20200603144051 77 165 0.0 0.0 0.00 0.00 0.00 37 1001.9
20200603143537 78 163 0.0 0.0 0.00 0.00 0.00 36 1001.9
20200603143041 78 151 0.0 0.0 0.00 0.00 0.00 36 1001.9
20200603142544 78 163 0.0 0.0 0.00 0.00 0.00 35 1001.8
20200603142047 78 169 0.0 0.0 0.00 0.00 0.00 35 1001.8
20200603141533 78 151 0.0 0.0 0.00 0.00 0.00 35 1001.8
20200603141038 77 171 0.0 0.0 0.00 0.00 0.00 36 1001.9
20200603140537 77 171 0.0 0.0 0.00 0.00 0.00 36 1002.0
20200603140037 77 171 0.0 0.0 0.00 0.00 0.00 36 1002.0
20200603135542 77 190 0.0 0.0 0.00 0.00 0.00 36 1002.1
20200603135041 76 190 0.0 0.0 0.00 0.00 0.00 37 1002.1
20200603134548 76 196 0.0 0.0 0.00 0.00 0.00 36 1002.1
20200603134032 77 205 0.0 0.0 0.00 0.00 0.00 34 1002.1
20200603133538 78 185 0.0 0.0 0.00 0.00 0.00 35 1002.1
20200603133042 77 186 0.0 0.0 0.00 0.00 0.00 35 1002.1
20200603132547 77 186 0.0 0.0 0.00 0.00 0.00 35 1002.2
20200603132052 77 186 0.0 0.0 0.00 0.00 0.00 35 1002.3
20200603131534 76 186 0.0 0.0 0.00 0.00 0.00 36 1002.5
20200603131035 77 177 0.0 0.0 0.00 0.00 0.00 36 1002.5
20200603130543 77 177 0.0 0.0 0.00 0.00 0.00 36 1002.4
20200603130042 77 192 0.0 0.0 0.00 0.00 0.00 35 1002.5
20200603125550 77 193 0.0 0.0 0.00 0.00 0.00 36 1002.6
20200603125035 76 193 0.0 0.0 0.00 0.00 0.00 36 1002.6
20200603124540 76 193 0.0 0.0 0.00 0.00 0.00 37 1002.6
20200603124042 76 177 0.0 0.0 0.00 0.00 0.00 36 1002.7
20200603123540 76 174 0.0 0.0 0.00 0.00 0.00 36 1002.7
20200603123052 76 174 0.0 0.0 0.00 0.00 0.00 37 1002.8
20200603122557 75 178 0.0 0.0 0.00 0.00 0.00 38 1002.8
20200603122032 74 179 0.0 0.0 0.00 0.00 0.00 38 1002.7
20200603121541 75 179 0.0 0.0 0.00 0.00 0.00 37 1002.8
20200603121044 75 168 0.0 0.0 0.00 0.00 0.00 37 1002.8
20200603120600 75 169 0.0 0.0 0.00 0.00 0.00 37 1002.9
20200603120034 75 183 0.0 0.0 0.00 0.00 0.00 38 1003.0
20200603115539 75 149 0.0 0.0 0.00 0.00 0.00 38 1002.8
20200603115042 75 150 0.0 0.0 0.00 0.00 0.00 37 1002.9
20200603114559 76 159 0.0 0.0 0.00 0.00 0.00 37 1003.0
20200603114100 76 165 0.0 0.0 0.00 0.00 0.00 37 1003.0
20200603113533 75 99 0.0 0.0 0.00 0.00 0.00 38 1003.0
20200603113050 75 97 0.0 0.0 0.00 0.00 0.00 37 1003.1
20200603112557 75 97 0.0 0.0 0.00 0.00 0.00 37 1003.3
20200603112033 74 96 0.0 0.0 0.00 0.00 0.00 38 1003.3
20200603111538 74 95 0.0 0.0 0.00 0.00 0.00 37 1003.4
20200603111052 75 127 0.0 0.0 0.00 0.00 0.00 37 1003.3
20200603110600 74 147 0.0 0.0 0.00 0.00 0.00 39 1003.4
20200603110101 73 179 0.0 0.0 0.00 0.00 0.00 39 1003.5
20200603105551 73 198 0.0 0.0 0.00 0.00 0.00 40 1003.6
20200603105033 73 207 0.0 0.0 0.00 0.00 0.00 39 1003.7
20200603104539 73 168 0.0 0.0 0.00 0.00 0.00 38 1003.8
20200603104037 73 165 0.0 0.0 0.00 0.00 0.00 38 1003.7
20200603103551 74 164 0.0 0.0 0.00 0.00 0.00 37 1003.8
20200603103055 74 157 0.0 0.0 0.00 0.00 0.00 38 1003.9
20200603102549 73 155 0.0 0.0 0.00 0.00 0.00 39 1003.9
20200603102039 71 158 0.0 0.0 0.00 0.00 0.00 40 1004.0
20200603101540 71 167 0.0 0.0 0.00 0.00 0.00 40 1004.0
20200603101051 71 194 0.0 0.0 0.00 0.00 0.00 40 1004.1
20200603100536 72 184 0.0 0.0 0.00 0.00 0.00 39 1004.1
20200603100040 72 171 0.0 0.0 0.00 0.00 0.00 39 1004.1
20200603095544 72 153 0.0 0.0 0.00 0.00 0.00 39 1004.1
20200603095036 71 153 0.0 0.0 0.00 0.00 0.00 35 1004.1
20200603094543 71 155 0.0 0.0 0.00 0.00 0.00 38 1004.1
20200603094046 71 201 0.0 0.0 0.00 0.00 0.00 39 1004.2
20200603093542 72 195 0.0 0.0 0.00 0.00 0.00 37 1004.2
20200603093048 72 119 0.0 0.0 0.00 0.00 0.00 40 1004.3
20200603092533 72 111 0.0 0.0 0.00 0.00 0.00 40 1004.4
20200603092049 72 105 0.0 0.0 0.00 0.00 0.00 41 1004.3
20200603091532 72 105 0.0 0.0 0.00 0.00 0.00 43 1004.3
20200603091036 71 167 0.0 0.0 0.00 0.00 0.00 44 1004.5
20200603090543 71 183 0.0 0.0 0.00 0.00 0.00 44 1004.4
20200603090043 71 122 0.0 0.0 0.00 0.00 0.00 43 1004.6
20200603085547 70 96 0.0 0.0 0.00 0.00 0.00 45 1004.6
20200603085032 70 94 0.0 0.0 0.00 0.00 0.00 46 1004.6
20200603084536 70 95 0.0 0.0 0.00 0.00 0.00 43 1004.6
20200603084041 71 124 0.0 0.0 0.00 0.00 0.00 41 1004.6
20200603083549 71 136 0.0 0.0 0.00 0.00 0.00 45 1004.6
20200603083032 70 137 0.0 0.0 0.00 0.00 0.00 45 1004.6
20200603082539 70 138 0.0 0.0 0.00 0.00 0.00 47 1004.5
20200603082052 70 149 0.0 0.0 0.00 0.00 0.00 45 1004.5
20200603081557 70 149 0.0 0.0 0.00 0.00 0.00 48 1004.5
20200603081057 69 149 0.0 0.0 0.00 0.00 0.00 46 1004.4
20200603080544 69 160 0.0 0.0 0.00 0.00 0.00 48 1004.5
20200603080050 69 170 0.0 0.0 0.00 0.00 0.00 50 1004.5
20200603075554 69 180 0.0 0.0 0.00 0.00 0.00 50 1004.7
20200603075040 69 253 0.0 0.0 0.00 0.00 0.00 53 1004.6
20200603074546 68 288 0.0 0.0 0.00 0.00 0.00 54 1004.7
20200603074052 68 288 0.0 0.0 0.00 0.00 0.00 57 1004.7
20200603073554 67 288 0.0 0.0 0.00 0.00 0.00 57 1004.8
20200603073033 67 290 0.0 0.0 0.00 0.00 0.00 59 1004.7
20200603072543 66 290 0.0 0.0 0.00 0.00 0.00 60 1004.6
20200603072047 66 290 0.0 0.0 0.00 0.00 0.00 60 1004.6
20200603071555 66 290 0.0 0.0 0.00 0.00 0.00 58 1004.5
20200603071038 66 291 0.0 0.0 0.00 0.00 0.00 60 1004.7
20200603070547 66 291 0.0 0.0 0.00 0.00 0.00 62 1004.7
20200603070051 66 292 0.0 0.0 0.00 0.00 0.00 64 1004.7
20200603065539 65 292 0.0 0.0 0.00 0.00 0.00 67 1004.6
20200603065042 65 292 0.0 0.0 0.00 0.00 0.00 67 1004.6
20200603064542 64 292 0.0 0.0 0.00 0.00 0.00 68 1004.6
20200603064045 64 292 0.0 0.0 0.00 0.00 0.00 68 1004.6
20200603063533 64 292 0.0 0.0 0.00 0.00 0.00 69 1004.6
20200603063037 63 292 0.0 0.0 0.00 0.00 0.00 69 1004.5
20200603062542 63 292 0.0 0.0 0.00 0.00 0.00 69 1004.5
20200603062048 63 292 0.0 0.0 0.00 0.00 0.00 69 1004.5
20200603061537 63 292 0.0 0.0 0.00 0.00 0.00 70 1004.4
20200603061037 63 292 0.0 0.0 0.00 0.00 0.00 69 1004.4
20200603060543 63 292 0.0 0.0 0.00 0.00 0.00 70 1004.4
20200603060050 63 292 0.0 0.0 0.00 0.00 0.00 70 1004.4
20200603055537 63 292 0.0 0.0 0.00 0.00 0.00 70 1004.3
20200603055033 63 292 0.0 0.0 0.00 0.00 0.00 70 1004.3
20200603054540 62 292 0.0 0.0 0.00 0.00 0.00 69 1004.3
20200603054036 62 292 0.0 0.0 0.00 0.00 0.00 68 1004.3
20200603053539 61 292 0.0 0.0 0.00 0.00 0.00 69 1004.3
20200603053038 61 292 0.0 0.0 0.00 0.00 0.00 70 1004.3
20200603052547 60 292 0.0 0.0 0.00 0.00 0.00 72 1004.2
20200603052046 60 292 0.0 0.0 0.00 0.00 0.00 73 1004.2
20200603051534 59 292 0.0 0.0 0.00 0.00 0.00 73 1004.1
20200603050544 60 292 0.0 0.0 0.00 0.00 0.00 74 1004.2
20200603050045 60 292 0.0 0.0 0.00 0.00 0.00 74 1004.2
20200603045533 60 292 0.0 0.0 0.00 0.00 0.00 73 1004.2
20200603045037 60 292 0.0 0.0 0.00 0.00 0.00 69 1004.2
20200603044539 60 292 0.0 0.0 0.00 0.00 0.00 69 1004.2
20200603044043 59 292 0.0 0.0 0.00 0.00 0.00 70 1004.1
20200603043549 59 292 0.0 0.0 0.00 0.00 0.00 70 1004.1
20200603043050 59 292 0.0 0.0 0.00 0.00 0.00 70 1004.1
20200603042532 58 292 0.0 0.0 0.00 0.00 0.00 70 1004.1
20200603042034 58 292 0.0 0.0 0.00 0.00 0.00 71 1004.1
20200603041539 58 292 0.0 0.0 0.00 0.00 0.00 71 1004.1
20200603041038 57 292 0.0 0.0 0.00 0.00 0.00 71 1004.1
20200603040549 57 292 0.0 0.0 0.00 0.00 0.00 71 1004.1
20200603040050 57 294 0.0 0.0 0.00 0.00 0.00 73 1004.0
20200603035539 57 294 0.0 0.0 0.00 0.00 0.00 73 1003.9
20200603035041 57 293 0.0 0.0 0.00 0.00 0.00 73 1003.9
20200603034549 57 299 0.0 0.0 0.00 0.00 0.00 74 1004.0
20200603034034 57 300 0.0 0.0 0.00 0.00 0.00 74 1004.0
20200603033538 57 297 0.0 0.0 0.00 0.00 0.00 73 1003.9
20200603033041 57 297 0.0 0.0 0.00 0.00 0.00 73 1003.8
20200603032551 57 297 0.0 0.0 0.00 0.00 0.00 73 1003.8
20200603032037 57 299 0.0 0.0 0.00 0.00 0.00 73 1003.7
20200603031543 57 299 0.0 0.0 0.00 0.00 0.00 73 1003.7
20200603031045 57 298 0.0 0.0 0.00 0.00 0.00 74 1003.7
20200603030534 57 299 0.0 0.0 0.00 0.00 0.00 74 1003.5
20200603030034 57 298 0.0 0.0 0.00 0.00 0.00 75 1003.5
20200603025542 57 300 0.0 0.0 0.00 0.00 0.00 75 1003.5
20200603025044 57 301 0.0 0.0 0.00 0.00 0.00 76 1003.5
20200603024532 57 302 0.0 0.0 0.00 0.00 0.00 76 1003.4
20200603024034 57 303 0.0 0.0 0.00 0.00 0.00 76 1003.5
20200603023537 58 304 0.0 0.0 0.00 0.00 0.00 77 1003.4
20200603023044 57 304 0.0 0.0 0.00 0.00 0.00 77 1003.4
20200603022548 57 304 0.0 0.0 0.00 0.00 0.00 78 1003.5
20200603022033 57 304 0.0 0.0 0.00 0.00 0.00 79 1003.4
20200603021537 57 304 0.0 0.0 0.00 0.00 0.00 79 1003.4
20200603021039 58 304 0.0 0.0 0.00 0.00 0.00 78 1003.6
20200603020422 58 302 0.0 0.0 0.00 0.00 0.00 78 1003.4